Simultaneous Nadir Overpasses (SNOs) Predictions

Prediction of SNOs between NPP and TERRA Satellite Orbit:

Table of predicted SNOs for the next 14.0 days since TLE Epoch: 1/6/2024
Index Date (NPP) Time (NPP) Lat,Lon (NPP) SZA (NPP ) Date (TERRA) Time (TERRA) Lat,Lon (TERRA) SZA (TERRA ) Distance(km) Time Diff (sec)
1 01/08/2024 02:32:22 -71.61, -44.06 86.03 01/08/2024 02:32:59 -71.62, -44.10 86.03 1.77 37
2 01/08/2024 03:23:06 71.50, 123.43 93.86 01/08/2024 03:22:22 71.50, 123.37 93.86 2.14 44
3 01/10/2024 14:35:36 71.66, -44.96 93.69 01/10/2024 14:36:17 71.64, -44.92 93.66 2.77 41
4 01/10/2024 15:26:18 -71.56, 122.54 86.43 01/10/2024 15:25:41 -71.56, 122.62 86.42 2.85 37
5 01/13/2024 02:38:46 -71.66, -45.77 86.69 01/13/2024 02:39:36 -71.64, -45.79 86.73 3.20 50
6 01/13/2024 03:29:30 71.57, 121.71 93.21 01/13/2024 03:28:58 71.56, 121.75 93.20 1.74 32
7 01/15/2024 14:41:59 71.69, -46.61 92.91 01/15/2024 14:42:53 71.65, -46.61 92.87 3.77 54
8 01/15/2024 15:32:41 -71.58, 120.90 87.22 01/15/2024 15:32:17 -71.59, 120.94 87.20 2.25 24
9 01/18/2024 02:45:10 -71.70, -47.43 87.55 01/18/2024 02:46:12 -71.67, -47.44 87.59 2.70 62
10 01/18/2024 03:35:54 71.61, 120.04 92.35 01/18/2024 03:35:34 71.58, 120.07 92.32 3.42 20



Historial Predications of SNOs between NPP and TERRA
